Regional Weather Roundup
Issued by NWS

Home | Current Version | Previous Version | Graphics & Text | Print | Product List | Glossary On
Versions: 1 2 3 4 5 6 7 8 9 10 11 12 13 14 15 16 17 18 19 20 21 22 23 24 25 26 27 28 29 30 31 32 33 34 35 36 37 38 39 40 41 42 43 44 45 46 47 48 49 50
000
ASUS43 KOAX 301902
RWRNE

WEATHER ROUNDUP FOR NEBRASKA
NATIONAL WEATHER SERVICE OMAHA NE
200 PM CDT WED JUL 30 2014

NOTES: SATELLITE DATA IS BEING USED TO AUGMENT CLOUD COVER ABOVE
       12000 FEET.
       "FAIR" INDICATES FEW OR NO CLOUDS BELOW 12,000 FEET WITH NO
       SIGNIFICANT WEATHER AND/OR OBSTRUCTIONS TO VISIBILITY.

  * THESE STATIONS DO NOT REPORT WEATHER SUCH AS RAIN...SNOW OR FOG.

NEZ001>004-019>022-054>056-302000-
NEBRASKA PANHANDLE

CITY           SKY/WX    TMP DP  RH WIND       PRES   REMARKS
SCOTTSBLUFF    CLOUDY    75  55  49 CALM      30.26F
ALLIANCE       PTSUNNY   77  49  37 NE5       30.24F
CHADRON        PTSUNNY   80  50  34 SW8       30.20F
KIMBALL        CLOUDY    66  56  70 S8        30.31S
SIDNEY         CLOUDY    70  58  65 VRB3      30.29F
$$

NEZ057>060-069>072-079>082-302000-
SOUTHWEST NEBRASKA

CITY           SKY/WX    TMP DP  RH WIND       PRES   REMARKS
NORTH PLATTE   PTSUNNY   78  51  38 VRB6      30.19F
IMPERIAL       PTSUNNY   74  57  55 VRB5      30.24F
LEXINGTON      MOSUNNY   79  56  45 S5        30.19S
MCCOOK         CLOUDY    75  57  53 E6        30.21F
OGALLALA       PTSUNNY   77  50  38 SE5       30.22F
$$

NEZ005>010-023>029-035>040-094-302000-
NORTH CENTRAL NEBRASKA

CITY           SKY/WX    TMP DP  RH WIND       PRES   REMARKS
VALENTINE      MOSUNNY   81  49  32 VRB3      30.17F
AINSWORTH      MOSUNNY   78  50  37 CALM      30.18F
BROKEN BOW     PTSUNNY   80  56  43 N7        30.18F
O`NEILL        PTSUNNY   79  56  45 NE6       30.17S THUNDER
ORD            MOSUNNY   79  55  43 VRB3      30.16F
THEDFORD       MOSUNNY   79  51  37 NE5       30.21S
$$

NEZ041-046>049-061>064-073>077-083>087-302000-
SOUTH CENTRAL NEBRASKA

CITY           SKY/WX    TMP DP  RH WIND       PRES   REMARKS
GRAND ISLAND   MOSUNNY   78  55  44 SE7       30.17F
AURORA         MOSUNNY   77  56  48 NE6       30.17F
HASTINGS       MOSUNNY   76  54  46 MISG      30.18F
HEBRON         CLOUDY    76  50  39 N7        30.15F
HOLDREGE       MOSUNNY   76  55  46 CALM      30.19S
KEARNEY *      PTSUNNY   77  54  44 NE5       30.19S
YORK           MOSUNNY   77  55  47 NE9       30.17F
$$

NEZ011>018-030>034-042>045-302000-
NORTHEAST NEBRASKA

CITY           SKY/WX    TMP DP  RH WIND       PRES   REMARKS
NORFOLK        MOSUNNY   80  52  37 N8        30.15F
ALBION         MOSUNNY   77  56  48 E3        30.16F
BLAIR          PTSUNNY   76  50  39 CALM      30.14F
COLUMBUS *     PTSUNNY   79  55  44 NW5       30.16F
FREMONT        MOSUNNY   78  52  40 CALM      30.15F
TEKAMAH        MOSUNNY   79  51  37 N6        30.13F
WAYNE          MOSUNNY   77  56  48 N3        30.15F
$$

NEZ050>053-065>068-078-088>093-302000-
SOUTHEAST NEBRASKA

CITY           SKY/WX    TMP DP  RH WIND       PRES   REMARKS
LINCOLN        MOSUNNY   83  50  31 MISG      30.15F
OMAHA EPPLEY   MOSUNNY   79  52  38 VRB7      30.13F
BEATRICE       MOSUNNY   77  54  44 E6        30.15S
FALLS CITY     PTSUNNY   80  53  39 NE6       30.12F
NEBRASKA CITY  MOSUNNY   77  50  37 NE6       30.14S
PLATTSMOUTH    PTSUNNY   78  48  35 N5        30.14S
$$

NEZ044-045-051>053-067-302000-
OMAHA AREA

CITY           SKY/WX    TMP DP  RH WIND       PRES   REMARKS
OMAHA EPPLEY   MOSUNNY   79  52  38 VRB7      30.13F
BLAIR          PTSUNNY   76  50  39 CALM      30.14F
FREMONT        MOSUNNY   78  52  40 CALM      30.15F
MILLARD        PTSUNNY   80  52  38 N6        30.13F
OFFUTT AFB     MOSUNNY   81  56  41 N5        30.13F
PLATTSMOUTH    PTSUNNY   78  48  35 N5        30.14S
WAHOO          FAIR      79  51  37 CALM      30.15S
$$



USA.gov is the U.S. government's official web portal to all federal, state and local government web resources and services.